EW5549 Weather Reports


time (UTC)temp
C
wind
direction
speed
KPH
gust
KPH
rain 1hr
cm
rain 24hr
cm
rain mn
cm
humidity
%
barometer
mb
20260508023523 14 168 3.2 3.2 0.00 0.10 0.10 60 1014.2
20260508023021 15 153 1.6 3.2 0.00 0.10 0.10 59 1014.4
20260508022516 15 154 3.2 3.2 0.00 0.10 0.10 58 1014.1
20260508022013 15 183 1.6 1.6 0.00 0.10 0.10 57 1014.0
20260508021509 15 198 3.2 3.2 0.00 0.10 0.10 56 1014.2
20260508021005 15 177 1.6 1.6 0.00 0.10 0.10 56 1014.1
20260508020503 16 215 1.6 1.6 0.00 0.10 0.10 54 1014.0
20260508020000 16 164 1.6 1.6 0.00 0.10 0.10 54 1014.0
20260508015458 16 204 4.8 4.8 0.00 0.10 0.10 52 1014.1
20260508014954 16 197 6.4 8.0 0.00 0.10 0.10 52 1014.1
20260508014451 16 182 4.8 4.8 0.00 0.10 0.10 52 1013.9
20260508013947 16 214 8.0 8.0 0.00 0.10 0.10 51 1013.9
20260508013443 16 222 6.4 8.0 0.00 0.10 0.10 51 1013.9
20260508012941 16 155 6.4 8.0 0.00 0.10 0.10 52 1013.8
20260508012437 16 152 4.8 4.8 0.00 0.10 0.10 51 1013.8
20260508011935 16 166 9.7 11.3 0.00 0.10 0.10 50 1013.9
20260508011434 16 199 4.8 4.8 0.00 0.10 0.10 53 1013.9
20260508010930 16 213 6.4 8.0 0.00 0.10 0.10 49 1014.0
20260508010427 16 214 6.4 8.0 0.00 0.10 0.10 48 1013.8
20260508005924 17 172 8.0 9.7 0.00 0.10 0.10 48 1014.1
20260508005421 17 151 3.2 3.2 0.00 0.10 0.10 47 1014.0
20260508004917 17 234 6.4 9.7 0.00 0.10 0.10 47 1014.0
20260508004414 17 226 11.3 12.9 0.00 0.10 0.10 48 1014.2
20260508003910 17 225 6.4 8.0 0.00 0.10 0.10 46 1014.2
20260508003407 17 335 1.6 1.6 0.00 0.10 0.10 47 1014.4
20260508002904 16 16 1.6 3.2 0.00 0.10 0.10 49 1014.4
20260508002401 16 34 6.4 9.7 0.00 0.10 0.10 49 1014.6
20260508001857 17 20 4.8 4.8 0.00 0.10 0.10 50 1014.6
20260508001353 16 72 3.2 3.2 0.00 0.10 0.10 50 1014.7
20260508000849 16 53 1.6 1.6 0.00 0.10 0.10 53 1014.6
20260508000346 16 327 4.8 8.0 0.00 0.10 0.10 49 1014.5
20260507235843 16 43 4.8 4.8 0.00 0.10 0.10 50 1014.5
20260507235340 16 18 1.6 1.6 0.00 0.10 0.10 51 1014.5
20260507234837 16 350 3.2 3.2 0.00 0.10 0.10 49 1014.1
20260507234333 16 122 4.8 4.8 0.00 0.10 0.10 51 1014.2
20260507233830 15 124 8.0 9.7 0.00 0.10 0.10 52 1014.2
20260507233328 15 96 9.7 12.9 0.00 0.10 0.10 55 1013.9
20260507232826 15 108 11.3 12.9 0.00 0.10 0.10 56 1013.9
20260507232322 16 90 12.9 14.5 0.00 0.10 0.10 56 1014.0
20260507231819 16 72 3.2 8.0 0.00 0.10 0.10 54 1014.2
20260507231316 16 31 3.2 8.0 0.00 0.10 0.10 57 1014.2
20260507230812 16 51 11.3 14.5 0.00 0.10 0.10 53 1014.4
20260507230309 16 358 8.0 11.3 0.00 0.10 0.10 54 1014.0
20260507225804 16 41 12.9 17.7 0.00 0.10 0.10 55 1013.9
20260507225300 16 4 4.8 8.0 0.00 0.10 0.10 58 1014.1
20260507224756 16 8 4.8 4.8 0.00 0.10 0.10 60 1014.2
20260507224253 15 55 12.9 16.1 0.00 0.10 0.10 60 1014.0
20260507223749 15 7 11.3 14.5 0.00 0.10 0.10 62 1014.1
20260507223246 14 318 12.9 17.7 0.00 0.10 0.10 61 1014.4
20260507222743 15 29 20.9 24.1 0.00 0.10 0.10 62 1014.1
20260507222239 15 353 19.3 27.4 0.00 0.10 0.10 61 1014.1
20260507221736 17 359 4.8 8.0 0.00 0.10 0.10 53 1014.0
20260507221232 17 293 9.7 9.7 0.00 0.10 0.10 48 1013.7
20260507220729 18 169 4.8 4.8 0.00 0.10 0.10 46 1013.5
20260507220227 18 61 1.6 1.6 0.00 0.10 0.10 49 1013.6
20260507215723 18 69 3.2 4.8 0.00 0.10 0.10 47 1013.6
20260507215221 18 2 4.8 4.8 0.00 0.10 0.10 47 1013.6
20260507214718 19 98 6.4 8.0 0.00 0.10 0.10 45 1013.8
20260507214215 18 72 8.0 9.7 0.00 0.10 0.10 44 1013.7
20260507213710 18 43 4.8 8.0 0.00 0.10 0.10 48 1013.8
20260507213208 18 79 9.7 12.9 0.00 0.10 0.10 46 1014.0
20260507212703 19 20 9.7 12.9 0.00 0.10 0.10 46 1013.9
20260507212200 19 43 6.4 9.7 0.00 0.10 0.10 45 1013.8
20260507211657 20 357 11.3 14.5 0.00 0.10 0.10 43 1014.0
20260507211152 19 44 6.4 9.7 0.00 0.10 0.10 48 1014.0
20260507210650 18 51 6.4 8.0 0.00 0.10 0.10 46 1014.1
20260507210146 20 7 14.5 16.1 0.00 0.10 0.10 46 1014.1
20260507205643 19 313 6.4 12.9 0.00 0.10 0.10 48 1014.4
20260507205140 18 338 11.3 14.5 0.00 0.10 0.10 48 1014.6
20260507204636 18 348 12.9 16.1 0.00 0.10 0.10 48 1014.5
20260507204134 18 63 8.0 11.3 0.00 0.10 0.10 50 1014.4
20260507203632 17 18 12.9 14.5 0.00 0.10 0.10 50 1014.1
20260507203129 17 357 11.3 14.5 0.00 0.10 0.10 49 1014.4
20260507202625 17 12 3.2 3.2 0.00 0.10 0.10 49 1014.2
20260507202121 17 39 8.0 9.7 0.00 0.10 0.10 52 1014.5
20260507201616 17 336 4.8 4.8 0.00 0.10 0.10 50 1014.4
20260507201114 17 327 4.8 4.8 0.00 0.10 0.10 49 1014.4
20260507200609 18 39 3.2 4.8 0.00 0.10 0.10 50 1014.5
20260507200105 18 298 6.4 8.0 0.00 0.10 0.10 47 1014.4
20260507195603 19 31 6.4 8.0 0.00 0.10 0.10 43 1014.2
20260507195100 19 293 17.7 17.7 0.00 0.10 0.10 43 1014.1
20260507194556 18 273 12.9 14.5 0.00 0.10 0.10 44 1014.4
20260507194052 18 2 4.8 8.0 0.00 0.10 0.10 51 1014.4
20260507193549 18 76 4.8 4.8 0.00 0.10 0.10 52 1014.4
20260507193046 18 104 4.8 8.0 0.00 0.10 0.10 53 1014.6
20260507192542 17 333 0.0 1.6 0.00 0.10 0.10 53 1014.5
20260507192039 17 26 0.0 1.6 0.00 0.10 0.10 51 1014.6
20260507191534 16 3 3.2 3.2 0.00 0.10 0.10 53 1014.5
20260507191032 16 10 3.2 3.2 0.00 0.10 0.10 53 1014.7
20260507190529 16 56 1.6 3.2 0.00 0.10 0.10 53 1014.8
20260507190028 17 7 8.0 9.7 0.00 0.10 0.10 53 1014.8
20260507185526 17 358 8.0 9.7 0.00 0.10 0.10 53 1014.9
20260507185022 17 358 3.2 3.2 0.00 0.10 0.10 54 1014.8
20260507184521 17 45 6.4 9.7 0.00 0.10 0.10 57 1015.0
20260507184018 16 334 8.0 11.3 0.00 0.10 0.10 56 1014.9
20260507183513 16 37 11.3 14.5 0.00 0.10 0.10 58 1015.1
20260507183011 16 53 11.3 12.9 0.00 0.10 0.10 59 1015.0
20260507182507 17 38 8.0 11.3 0.00 0.10 0.10 57 1015.0
20260507182003 17 7 8.0 11.3 0.00 0.10 0.10 59 1015.1
20260507181500 16 13 3.2 3.2 0.00 0.10 0.10 59 1015.0
20260507180956 15 4 9.7 11.3 0.00 0.10 0.10 65 1015.3
20260507180453 15 331 11.3 20.9 0.00 0.10 0.10 64 1015.3
20260507175949 15 337 14.5 16.1 0.00 0.10 0.10 64 1015.1
20260507175446 15 11 11.3 12.9 0.00 0.10 0.10 62 1015.0
20260507174944 15 2 4.8 8.0 0.00 0.10 0.10 61 1015.1
20260507174440 15 52 8.0 9.7 0.00 0.10 0.10 59 1014.9
20260507173938 15 46 6.4 9.7 0.00 0.10 0.10 60 1014.9
20260507173435 15 23 4.8 8.0 0.00 0.10 0.10 60 1014.9
20260507172932 15 285 4.8 4.8 0.00 0.10 0.10 62 1014.8
20260507172428 16 272 9.7 9.7 0.00 0.10 0.10 60 1014.7
20260507171925 16 270 9.7 11.3 0.00 0.10 0.10 60 1014.7
20260507171421 16 272 12.9 12.9 0.00 0.10 0.10 58 1014.7
20260507170918 16 271 9.7 11.3 0.00 0.10 0.10 60 1014.7
20260507170414 16 266 8.0 9.7 0.00 0.10 0.10 61 1014.7
20260507165911 16 268 8.0 9.7 0.00 0.10 0.10 59 1014.7
20260507165407 16 247 8.0 9.7 0.00 0.10 0.10 60 1014.7
20260507164903 16 268 11.3 11.3 0.00 0.10 0.10 59 1014.7
20260507164400 16 268 8.0 8.0 0.00 0.10 0.10 61 1014.8
20260507163857 16 264 8.0 9.7 0.00 0.10 0.10 60 1014.7
20260507163355 16 279 9.7 12.9 0.00 0.10 0.10 63 1014.7
20260507162851 16 257 9.7 11.3 0.00 0.10 0.10 61 1014.8
20260507162346 15 271 6.4 8.0 0.00 0.10 0.10 66 1014.8
20260507161844 15 305 6.4 8.0 0.00 0.10 0.10 69 1014.9
20260507161340 13 305 4.8 4.8 0.00 0.10 0.10 70 1014.9
20260507160837 14 299 4.8 8.0 0.00 0.10 0.10 69 1014.9
20260507160332 14 298 8.0 9.7 0.00 0.10 0.10 68 1015.3
20260507155829 14 10 4.8 4.8 0.00 0.10 0.10 68 1015.3
20260507155325 13 356 3.2 3.2 0.00 0.10 0.10 70 1015.1
20260507154822 13 19 1.6 3.2 0.00 0.10 0.10 72 1015.1
20260507154319 13 333 1.6 3.2 0.00 0.10 0.10 74 1015.4
20260507153816 13 31 0.0 1.6 0.00 0.10 0.10 74 1015.1
20260507153312 13 10 0.0 1.6 0.00 0.10 0.10 74 1015.3
20260507152809 13 337 3.2 3.2 0.00 0.10 0.10 73 1015.3
20260507152306 13 40 0.0 0.0 0.00 0.10 0.10 73 1015.3
20260507151801 12 52 1.6 3.2 0.00 0.10 0.10 74 1015.1
20260507151257 13 72 3.2 3.2 0.00 0.10 0.10 72 1015.0
20260507150755 13 55 0.0 0.0 0.00 0.10 0.10 75 1015.1
20260507150251 12 111 3.2 3.2 0.00 0.10 0.10 78 1014.9
20260507145747 12 87 1.6 1.6 0.00 0.10 0.10 78 1015.1
20260507145244 11 282 3.2 3.2 0.00 0.10 0.10 80 1015.1
20260507144741 11 276 4.8 8.0 0.00 0.10 0.10 79 1015.3
20260507144239 11 288 8.0 9.7 0.00 0.10 0.10 82 1015.3
20260507143735 11 301 4.8 4.8 0.00 0.10 0.10 84 1014.9
20260507143232 11 336 1.6 3.2 0.00 0.10 0.10 83 1015.0
20260507142728 11 30 0.0 0.0 0.00 0.10 0.10 83 1014.8
20260507142225 10 30 0.0 0.0 0.00 0.10 0.10 86 1014.8
20260507141721 10 49 0.0 0.0 0.00 0.10 0.10 88 1014.7
20260507141219 10 141 0.0 0.0 0.00 0.10 0.10 88 1014.5
20260507140714 10 57 0.0 0.0 0.00 0.10 0.10 88 1014.2
20260507140212 10 11 0.0 0.0 0.00 0.10 0.10 87 1014.2
20260507135709 10 309 0.0 0.0 0.00 0.10 0.10 87 1014.5
20260507135206 10 348 0.0 0.0 0.00 0.10 0.10 88 1014.6
20260507134702 10 27 3.2 3.2 0.00 0.10 0.10 89 1014.7
20260507134159 10 22 1.6 1.6 0.00 0.10 0.10 88 1014.6
20260507133654 9 231 4.8 4.8 0.00 0.10 0.10 90 1014.2
20260507133152 9 168 3.2 3.2 0.00 0.10 0.10 91 1014.4
20260507132649 9 232 3.2 3.2 0.00 0.10 0.10 90 1014.2
20260507132145 9 199 1.6 3.2 0.00 0.10 0.10 90 1014.2
20260507131643 9 126 1.6 1.6 0.00 0.10 0.10 89 1014.1
20260507131140 9 112 3.2 3.2 0.00 0.10 0.10 88 1014.0
20260507130636 9 115 4.8 4.8 0.00 0.10 0.10 89 1013.9
20260507130134 8 81 0.0 0.0 0.00 0.10 0.10 89 1014.2
20260507125633 8 81 0.0 0.0 0.00 0.10 0.10 89 1014.1
20260507125130 8 81 0.0 0.0 0.00 0.10 0.10 89 1014.2
20260507124626 8 81 0.0 0.0 0.00 0.10 0.10 89 1013.8
20260507124124 8 81 1.6 1.6 0.00 0.10 0.10 88 1013.9
20260507123622 9 79 1.6 3.2 0.00 0.10 0.10 86 1013.7
20260507123119 9 64 3.2 4.8 0.00 0.10 0.10 87 1013.9
20260507122614 8 62 4.8 4.8 0.00 0.10 0.10 88 1014.0
20260507122110 8 43 0.0 0.0 0.00 0.10 0.10 87 1013.8
20260507121606 8 52 1.6 1.6 0.00 0.10 0.10 87 1013.9
20260507121102 8 12 3.2 3.2 0.00 0.10 0.10 87 1014.0
20260507120558 8 352 3.2 4.8 0.00 0.10 0.10 88 1013.7
20260507120055 8 0 1.6 3.2 0.00 0.10 0.10 87 1013.7
20260507115551 8 346 1.6 3.2 0.00 0.10 0.10 87 1013.5
20260507115048 9 331 1.6 1.6 0.00 0.10 0.10 85 1013.6
20260507114543 10 148 0.0 0.0 0.00 0.10 0.10 82 1013.6
20260507114041 10 161 3.2 3.2 0.00 0.10 0.10 84 1013.6
20260507113538 10 163 3.2 3.2 0.00 0.10 0.10 84 1013.6
20260507113035 10 162 0.0 1.6 0.00 0.10 0.10 84 1013.8
20260507112533 10 165 3.2 3.2 0.00 0.10 0.10 83 1013.7
20260507112029 10 129 4.8 4.8 0.00 0.10 0.10 84 1013.9
20260507111526 10 121 4.8 4.8 0.00 0.10 0.10 84 1013.9
20260507111023 10 211 0.0 0.0 0.00 0.10 0.10 83 1013.7
20260507110520 10 218 4.8 4.8 0.00 0.10 0.10 82 1014.0
20260507110016 10 208 8.0 8.0 0.00 0.10 0.10 81 1013.8
20260507105513 10 238 4.8 4.8 0.00 0.10 0.10 79 1013.6
20260507105009 11 232 9.7 12.9 0.00 0.10 0.10 77 1013.8
20260507104507 11 284 6.4 8.0 0.00 0.10 0.10 68 1013.5
20260507104003 11 326 4.8 4.8 0.00 0.10 0.10 76 1013.6
20260507103500 10 243 11.3 11.3 0.00 0.10 0.10 81 1014.0
20260507102955 10 287 6.4 8.0 0.00 0.10 0.10 79 1013.7
20260507102452 10 292 3.2 3.2 0.00 0.10 0.10 79 1013.8
20260507101948 10 299 8.0 9.7 0.00 0.10 0.10 80 1013.8
20260507101443 10 315 6.4 11.3 0.00 0.10 0.10 79 1014.0
20260507100940 11 298 9.7 11.3 0.00 0.10 0.10 78 1014.2
20260507100438 11 284 16.1 16.1 0.30 0.10 0.10 75 1014.7
20260507095936 10 264 17.7 20.9 0.43 0.10 0.10 80 1014.7
20260507095433 11 290 33.8 40.2 0.13 0.05 0.05 77 1015.0
20260507094930 10 271 41.8 46.7 0.00 0.03 0.03 81 1014.0
20260507094426 12 287 19.3 20.9 0.00 0.03 0.03 72 1014.7
20260507093923 12 291 43.5 51.5 0.00 0.03 0.03 67 1014.5
20260507093421 12 338 22.5 29.0 0.00 0.03 0.03 70 1014.1
20260507092920 10 290 11.3 14.5 0.00 0.03 0.03 83 1013.8
20260507092415 10 339 6.4 8.0 0.00 0.03 0.03 84 1013.2
20260507091912 10 298 4.8 4.8 0.00 0.03 0.03 84 1012.7
20260507091408 10 277 4.8 4.8 0.00 0.03 0.03 83 1012.7
20260507090904 10 280 4.8 4.8 0.00 0.03 0.03 83 1012.7
20260507090401 10 270 3.2 3.2 0.00 0.03 0.03 83 1012.6
20260507085858 11 0 1.6 3.2 0.00 0.03 0.03 78 1012.4
20260507085354 10 22 3.2 3.2 0.00 0.03 0.03 79 1012.1
20260507084852 11 22 1.6 1.6 0.00 0.03 0.03 80 1012.4
20260507084348 11 99 0.0 0.0 0.00 0.03 0.03 80 1012.2
20260507083846 11 51 0.0 0.0 0.00 0.03 0.03 81 1012.4
20260507083342 11 52 0.0 0.0 0.00 0.03 0.03 78 1012.1
20260507082838 11 52 0.0 0.0 0.00 0.03 0.03 77 1012.1
20260507082334 11 52 0.0 0.0 0.00 0.03 0.03 74 1012.1
20260507081831 11 52 0.0 0.0 0.00 0.03 0.03 75 1012.2
20260507081327 11 52 0.0 0.0 0.00 0.03 0.03 76 1012.1
20260507080824 11 52 1.6 1.6 0.00 0.03 0.03 75 1012.2
20260507080320 11 62 0.0 0.0 0.00 0.03 0.03 77 1012.0
20260507075815 11 52 3.2 3.2 0.00 0.03 0.03 78 1012.0
20260507075312 11 45 1.6 1.6 0.00 0.03 0.03 76 1012.0
20260507074809 12 67 1.6 1.6 0.00 0.03 0.03 70 1011.9
20260507074306 12 107 3.2 3.2 0.00 0.03 0.03 69 1012.0
20260507073803 12 100 3.2 3.2 0.00 0.03 0.03 68 1012.0
20260507073300 12 124 4.8 4.8 0.00 0.03 0.03 67 1011.9
20260507072757 13 142 4.8 4.8 0.00 0.03 0.03 65 1011.9
20260507072255 12 244 0.0 0.0 0.00 0.03 0.03 65 1012.1
20260507071752 13 179 1.6 1.6 0.00 0.03 0.03 66 1011.9
20260507071248 13 162 4.8 4.8 0.00 0.03 0.03 64 1012.0
20260507070745 13 216 0.0 1.6 0.00 0.03 0.03 64 1011.9
20260507070242 13 255 6.4 8.0 0.00 0.03 0.03 64 1011.9
20260507065738 12 204 6.4 9.7 0.00 0.03 0.03 66 1011.9
20260507065236 13 231 9.7 11.3 0.00 0.03 0.03 66 1011.9
20260507064733 12 229 8.0 9.7 0.00 0.03 0.03 63 1011.9
20260507064232 12 65 0.0 0.0 0.00 0.03 0.03 67 1011.9
20260507063728 13 33 3.2 3.2 0.00 0.03 0.03 65 1011.7
20260507063225 13 34 4.8 4.8 0.00 0.03 0.03 62 1011.7
20260507062722 13 42 6.4 8.0 0.00 0.03 0.03 64 1011.9
20260507062220 13 342 9.7 11.3 0.00 0.03 0.03 64 1012.0
20260507061717 14 315 9.7 12.9 0.18 0.03 0.03 61 1012.5
20260507061215 13 316 8.0 14.5 0.18 0.03 0.03 63 1012.6
20260507060713 14 294 30.6 37.0 0.00 0.00 0.00 61 1012.9
20260507060209 14 303 22.5 25.7 0.00 0.00 0.00 58 1012.6
20260507055705 15 262 16.1 17.7 0.00 0.00 0.00 59 1012.6
20260507055201 15 269 30.6 35.4 0.00 0.00 0.00 54 1012.8
20260507054657 15 300 19.3 25.7 0.00 0.00 0.00 59 1012.6
20260507054154 14 286 22.5 24.1 0.00 0.00 0.00 61 1012.5
20260507053652 15 293 19.3 24.1 0.00 0.00 0.00 58 1012.2
20260507053150 15 346 1.6 3.2 0.00 0.00 0.00 56 1012.1
20260507052648 16 294 25.7 29.0 0.00 0.00 0.00 50 1012.1
20260507052144 17 294 19.3 22.5 0.00 0.00 0.00 47 1012.0
20260507051642 17 290 17.7 24.1 0.00 0.00 0.00 45 1012.0
20260507051138 17 244 37.0 43.5 0.00 0.00 0.00 45 1012.0
20260507050635 16 261 33.8 41.8 0.00 0.00 0.00 45 1011.8
20260507050132 16 259 24.1 29.0 0.00 0.00 0.00 51 1012.1
20260507045629 16 307 35.4 40.2 0.00 0.00 0.00 51 1012.6
20260507045126 16 303 17.7 17.7 0.00 0.00 0.00 50 1012.5
20260507044622 16 285 17.7 20.9 0.00 0.00 0.00 50 1012.5
20260507044120 16 281 29.0 32.2 0.00 0.00 0.00 48 1012.0
20260507043615 16 282 32.2 38.6 0.00 0.00 0.00 48 1012.5
20260507043113 17 280 41.8 46.7 0.00 0.00 0.00 44 1012.2
20260507042609 16 259 11.3 12.9 0.00 0.00 0.00 49 1012.2
20260507042104 16 281 8.0 9.7 0.00 0.00 0.00 48 1011.9
20260507041601 16 265 8.0 8.0 0.00 0.00 0.00 47 1011.9
20260507041058 17 264 8.0 9.7 0.00 0.00 0.00 45 1011.9
20260507040555 17 276 6.4 9.7 0.00 0.00 0.00 45 1011.9
20260507040051 17 236 6.4 9.7 0.00 0.00 0.00 44 1011.9
20260507035547 17 265 9.7 9.7 0.00 0.00 0.00 44 1011.8
20260507035043 17 244 9.7 11.3 0.00 0.00 0.00 43 1011.7
20260507034540 17 255 11.3 12.9 0.00 0.00 0.00 43 1011.5
20260507034038 17 247 11.3 12.9 0.00 0.00 0.00 44 1011.6
20260507033536 17 250 11.3 12.9 0.00 0.00 0.00 44 1011.5
20260507033033 17 248 11.3 12.9 0.00 0.00 0.00 44 1011.5
20260507032530 17 240 14.5 16.1 0.00 0.00 0.00 43 1011.3
20260507032026 17 253 17.7 20.9 0.00 0.00 0.00 43 1011.1
20260507031522 17 246 14.5 16.1 0.00 0.00 0.00 43 1011.3
20260507031020 18 243 14.5 17.7 0.00 0.00 0.00 43 1011.2
20260507030516 18 248 20.9 24.1 0.00 0.00 0.00 42 1011.1
20260507030014 18 255 14.5 16.1 0.00 0.00 0.00 42 1011.0
20260507025511 18 272 16.1 17.7 0.00 0.00 0.00 41 1010.9
20260507025009 18 238 16.1 16.1 0.00 0.00 0.00 40 1010.8
20260507024506 18 257 17.7 17.7 0.00 0.00 0.00 40 1010.9
20260507024002 18 258 17.7 20.9 0.00 0.00 0.00 38 1010.9